sat.trackr.live / text

‹ back to catalog

YAOGAN-39 02A

NORAD 57886 · 2023-145A

PAYLOAD ACTIVE UNKNOWN

§ Identity

Operator
Country
PRC
Launch date
2023-09-17
Launch site
XICLF
Launch vehicle
Mass (kg)
RCS (m²)

External: N2YO · Heavens-Above · Gunter

§ Orbital elements

Epoch: 2026-09-22T11:27:43.792416Z

Period
94.56 min
Inclination
35.0035°
Eccentricity
0.0002316
Mean motion
15.22887398 rev/d
Perigee alt
495.5 km
Apogee alt
498.7 km
Semi-major
6,875.3 km
B*
2.4411e-4
RAAN
308.6280°
Arg perigee
143.4498°
Mean anomaly
216.6375°
Rev number
16,801

§ Raw data

YAOGAN-39 02A1 57886U 23145A   26265.47759019  .00005828  00000+0  24411-3 0  99992 57886  35.0035 308.6280 0002316 143.4498 216.6375 15.22887398168013

JSON: /api/v1/satellites/57886 · /tle

For live sub-satellite position, see the globe view (requires WebGL).

§ Visibility from observer

Set your observer location to see the next 7 days of passes ≥ 10°. The values pass through the URL so the page stays shareable.

No JS? Fill the form by hand. The geolocation button needs JavaScript.